EW7114 Weather Reports


time (UTC)temp
C
wind
direction
speed
KPH
gust
KPH
rain 1hr
cm
rain 24hr
cm
rain mn
cm
humidity
%
barometer
mb
20260503210521 22 297 6.4 14.5 0.00 0.00 0.00 20 1006.5
20260503210019 22 321 3.2 19.3 0.00 0.00 0.00 20 1006.5
20260503205518 22 247 12.9 19.3 0.00 0.00 0.00 22 1006.8
20260503205017 22 232 8.0 17.7 0.00 0.00 0.00 21 1006.8
20260503204516 22 191 1.6 16.1 0.00 0.00 0.00 20 1006.8
20260503204013 22 126 9.7 32.2 0.00 0.00 0.00 20 1006.9
20260503203516 22 190 6.4 32.2 0.00 0.00 0.00 20 1006.9
20260503203012 22 184 1.6 9.7 0.00 0.00 0.00 19 1007.1
20260503202511 22 166 4.8 9.7 0.00 0.00 0.00 19 1007.1
20260503202011 22 224 0.0 8.0 0.00 0.00 0.00 20 1007.2
20260503201505 22 215 0.0 11.3 0.00 0.00 0.00 19 1007.4
20260503201004 22 190 6.4 16.1 0.00 0.00 0.00 19 1007.5
20260503200502 22 172 4.8 16.1 0.00 0.00 0.00 19 1007.6
20260503200001 22 165 6.4 14.5 0.00 0.00 0.00 20 1007.8
20260503195600 22 249 6.4 16.1 0.00 0.00 0.00 20 1007.7
20260503195058 22 162 6.4 16.1 0.00 0.00 0.00 20 1007.9
20260503194607 22 163 9.7 17.7 0.00 0.00 0.00 20 1007.9
20260503194056 22 153 8.0 16.1 0.00 0.00 0.00 21 1008.0
20260503193555 22 84 8.0 14.5 0.00 0.00 0.00 21 1008.0
20260503193103 22 196 8.0 17.7 0.00 0.00 0.00 23 1008.1
20260503192550 22 147 8.0 12.9 0.00 0.00 0.00 22 1008.2
20260503192049 22 305 3.2 14.5 0.00 0.00 0.00 20 1008.2
20260503191607 22 95 6.4 16.1 0.00 0.00 0.00 21 1008.4
20260503191047 22 188 1.6 14.5 0.00 0.00 0.00 20 1008.5
20260503190546 22 350 1.6 16.1 0.00 0.00 0.00 21 1008.6
20260503190044 22 180 6.4 24.1 0.00 0.00 0.00 20 1008.7
20260503185542 22 153 14.5 24.1 0.00 0.00 0.00 19 1008.8
20260503185041 22 217 4.8 16.1 0.00 0.00 0.00 21 1008.9
20260503184540 22 350 11.3 17.7 0.00 0.00 0.00 22 1008.9
20260503184041 22 92 9.7 27.4 0.00 0.00 0.00 20 1008.9
20260503183537 22 128 14.5 27.4 0.00 0.00 0.00 22 1009.1
20260503183035 22 150 14.5 20.9 0.00 0.00 0.00 22 1009.2
20260503182535 21 180 11.3 24.1 0.00 0.00 0.00 22 1009.2
20260503182032 21 159 11.3 20.9 0.00 0.00 0.00 23 1009.3
20260503181544 21 173 8.0 16.1 0.00 0.00 0.00 25 1009.3
20260503181029 21 147 11.3 16.1 0.00 0.00 0.00 23 1009.5
20260503180529 21 140 9.7 24.1 0.00 0.00 0.00 24 1009.6
20260503180029 21 170 12.9 27.4 0.00 0.00 0.00 25 1009.6
20260503175525 21 134 16.1 27.4 0.00 0.00 0.00 26 1009.8
20260503175023 21 163 12.9 19.3 0.00 0.00 0.00 25 1009.8
20260503174522 20 176 11.3 17.7 0.00 0.00 0.00 27 1009.9
20260503174020 20 133 8.0 20.9 0.00 0.00 0.00 28 1010.0
20260503173519 20 172 12.9 22.5 0.00 0.00 0.00 28 1010.0
20260503173017 20 143 9.7 20.9 0.00 0.00 0.00 27 1010.1
20260503172515 20 186 12.9 20.9 0.00 0.00 0.00 28 1010.1
20260503172015 20 183 14.5 20.9 0.00 0.00 0.00 27 1010.2
20260503171512 20 160 9.7 17.7 0.00 0.00 0.00 28 1010.2
20260503171011 20 192 9.7 19.3 0.00 0.00 0.00 28 1010.2
20260503170510 20 132 12.9 17.7 0.00 0.00 0.00 28 1010.4
20260503160105 14 157 1.6 8.0 0.00 0.00 0.00 42 1011.2
20260503150534 8 240 0.0 3.2 0.00 0.00 0.00 53 1012.0
20260503131006 0 213 0.0 3.2 0.00 0.00 0.00 1 1012.3
20260503130503 0 213 1.6 6.4 0.00 0.00 0.00 1 1012.3
20260503110528 1 206 0.0 0.0 0.00 0.00 0.00 29 1012.7
20260503081550 3 206 0.0 4.8 0.00 0.00 0.00 39 1012.7
20260503081047 3 206 1.6 4.8 0.00 0.00 0.00 37 1012.7
20260503080549 3 206 0.0 3.2 0.00 0.00 0.00 37 1012.8
20260503080152 3 206 0.0 1.6 0.00 0.00 0.00 39 1012.8
20260503072539 2 206 3.2 6.4 0.00 0.00 0.00 52 1012.9
20260503072041 2 206 4.8 6.4 0.00 0.00 0.00 55 1012.8
20260503071538 2 206 4.8 6.4 0.00 0.00 0.00 56 1012.7
20260503071036 3 206 4.8 6.4 0.00 0.00 0.00 56 1012.7
20260503070534 3 206 3.2 6.4 0.00 0.00 0.00 56 1012.8
20260503055020 5 206 1.6 8.0 0.00 0.00 0.00 55 1012.2
20260503054516 5 195 3.2 8.0 0.00 0.00 0.00 55 1012.2
20260503054014 5 165 3.2 8.0 0.00 0.00 0.00 55 1012.2
20260503053513 4 159 3.2 8.0 0.00 0.00 0.00 55 1012.1
20260503053012 4 163 6.4 8.0 0.00 0.00 0.00 55 1012.0
20260503052509 5 167 4.8 8.0 0.00 0.00 0.00 54 1012.0
20260503052008 5 126 6.4 8.0 0.00 0.00 0.00 52 1011.9
20260503051506 6 167 3.2 9.7 0.00 0.00 0.00 49 1011.8
20260503051005 8 150 4.8 9.7 0.00 0.00 0.00 45 1011.7
20260503050504 10 325 0.0 3.2 0.00 0.00 0.00 43 1011.8
20260503050003 10 325 0.0 4.8 0.00 0.00 0.00 43 1011.7
20260503045601 10 325 3.2 6.4 0.00 0.00 0.00 44 1011.7
20260503045100 10 325 3.2 6.4 0.00 0.00 0.00 43 1011.8
20260503044558 10 325 1.6 4.8 0.00 0.00 0.00 44 1011.8
20260503044057 10 5 0.0 4.8 0.00 0.00 0.00 44 1011.8
20260503043557 10 18 0.0 6.4 0.00 0.00 0.00 44 1011.8
20260503043100 11 315 3.2 8.0 0.00 0.00 0.00 43 1011.9
20260503042558 11 328 3.2 6.4 0.00 0.00 0.00 43 1011.9
20260503042057 11 307 3.2 6.4 0.00 0.00 0.00 43 1011.9
20260503041554 11 303 3.2 6.4 0.00 0.00 0.00 42 1011.9
20260503041057 11 315 3.2 4.8 0.00 0.00 0.00 42 1011.9
20260503040553 11 307 0.0 6.4 0.00 0.00 0.00 44 1012.0
20260503040054 11 307 1.6 6.4 0.00 0.00 0.00 43 1011.9
20260503035548 11 314 3.2 6.4 0.00 0.00 0.00 43 1011.9
20260503035048 11 309 3.2 8.0 0.00 0.00 0.00 43 1011.9
20260503034548 11 309 3.2 8.0 0.00 0.00 0.00 42 1011.8
20260503034044 11 318 3.2 8.0 0.00 0.00 0.00 44 1011.7
20260503033542 11 299 1.6 6.4 0.00 0.00 0.00 44 1011.7
20260503033042 11 316 3.2 6.4 0.00 0.00 0.00 44 1011.7
20260503032540 11 301 3.2 6.4 0.00 0.00 0.00 44 1011.6
20260503032040 11 315 3.2 6.4 0.00 0.00 0.00 44 1011.6
20260503031540 12 307 1.6 8.0 0.00 0.00 0.00 44 1011.5
20260503031039 12 298 1.6 8.0 0.00 0.00 0.00 43 1011.5
20260503030538 12 311 0.0 4.8 0.00 0.00 0.00 44 1011.4
20260503030037 12 328 0.0 6.4 0.00 0.00 0.00 42 1011.4
20260503025536 12 328 1.6 8.0 0.00 0.00 0.00 42 1011.3
20260503025033 12 330 1.6 8.0 0.00 0.00 0.00 42 1011.3
20260503024536 13 359 0.0 4.8 0.00 0.00 0.00 40 1011.3
20260503024031 13 64 1.6 6.4 0.00 0.00 0.00 40 1011.3
20260503023531 14 326 3.2 8.0 0.00 0.00 0.00 39 1011.2
20260503023028 15 323 3.2 8.0 0.00 0.00 0.00 37 1011.2
20260503022526 15 305 3.2 6.4 0.00 0.00 0.00 38 1011.2
20260503022024 16 359 1.6 6.4 0.00 0.00 0.00 35 1011.3
20260503021524 16 350 3.2 9.7 0.00 0.00 0.00 34 1011.3
20260503021022 16 7 3.2 9.7 0.00 0.00 0.00 34 1011.3
20260503020520 17 10 3.2 8.0 0.00 0.00 0.00 32 1011.3
20260503020019 17 345 4.8 8.0 0.00 0.00 0.00 31 1011.3
20260503015521 17 340 4.8 9.7 0.00 0.00 0.00 31 1011.3
20260503015015 17 345 4.8 9.7 0.00 0.00 0.00 31 1011.3
20260503014514 17 345 6.4 17.7 0.00 0.00 0.00 31 1011.3
20260503014012 18 332 9.7 17.7 0.00 0.00 0.00 30 1011.4
20260503013511 18 336 6.4 17.7 0.00 0.00 0.00 30 1011.4
20260503013015 18 335 8.0 19.3 0.00 0.00 0.00 30 1011.3
20260503012508 18 359 11.3 19.3 0.00 0.00 0.00 30 1011.3
20260503012005 18 1 11.3 20.9 0.00 0.00 0.00 31 1011.4
20260503011504 18 1 14.5 22.5 0.00 0.00 0.00 30 1011.3
20260503011004 19 329 12.9 20.9 0.00 0.00 0.00 30 1011.3
20260503010502 19 359 11.3 19.3 0.00 0.00 0.00 28 1011.3
20260503010100 19 359 6.4 17.7 0.00 0.00 0.00 29 1011.3
20260503005559 19 330 12.9 19.3 0.00 0.00 0.00 28 1011.3
20260503005057 19 359 11.3 19.3 0.00 0.00 0.00 28 1011.3
20260503004558 20 9 11.3 20.9 0.00 0.00 0.00 27 1011.3
20260503004055 20 17 16.1 20.9 0.00 0.00 0.00 26 1011.2
20260503003553 20 23 11.3 20.9 0.00 0.00 0.00 26 1011.3
20260503003055 21 345 12.9 20.9 0.00 0.00 0.00 26 1011.2
20260503002550 21 359 11.3 24.1 0.00 0.00 0.00 25 1011.2
20260503002049 21 27 9.7 16.1 0.00 0.00 0.00 25 1011.2
20260503001550 21 319 0.0 8.0 0.00 0.00 0.00 23 1011.2
20260503001046 21 215 4.8 9.7 0.00 0.00 0.00 23 1011.2
20260503000543 21 68 3.2 16.1 0.00 0.00 0.00 23 1011.3
20260503000044 21 320 6.4 16.1 0.00 0.00 0.00 23 1011.3
20260502235544 21 15 4.8 19.3 0.00 0.00 0.00 23 1011.3
20260502235039 21 50 11.3 22.5 0.00 0.00 0.00 24 1011.3
20260502234549 21 336 11.3 22.5 0.00 0.00 0.00 22 1011.3
20260502234037 21 16 9.7 20.9 0.00 0.00 0.00 24 1011.3
20260502233535 21 36 12.9 25.7 0.00 0.00 0.00 23 1011.3
20260502233040 21 350 17.7 25.7 0.00 0.00 0.00 24 1011.4
20260502232532 21 265 3.2 22.5 0.00 0.00 0.00 24 1011.4
20260502232031 21 36 4.8 22.5 0.00 0.00 0.00 23 1011.5
20260502231529 21 4 8.0 17.7 0.00 0.00 0.00 24 1011.5
20260502231028 21 332 4.8 22.5 0.00 0.00 0.00 23 1011.6
20260502230527 22 345 11.3 22.5 0.00 0.00 0.00 23 1011.7
20260502230032 21 22 8.0 19.3 0.00 0.00 0.00 24 1011.7
20260502225523 21 50 9.7 19.3 0.00 0.00 0.00 23 1011.9
20260502225022 21 315 9.7 17.7 0.00 0.00 0.00 23 1012.0
20260502224520 21 15 6.4 17.7 0.00 0.00 0.00 23 1012.1
20260502224019 21 345 3.2 14.5 0.00 0.00 0.00 22 1012.2
20260502223518 21 176 4.8 17.7 0.00 0.00 0.00 21 1012.2
20260502223024 21 321 8.0 17.7 0.00 0.00 0.00 21 1012.3
20260502222514 21 77 6.4 16.1 0.00 0.00 0.00 21 1012.4
20260502222013 21 192 3.2 17.7 0.00 0.00 0.00 21 1012.6
20260502221515 21 253 9.7 17.7 0.00 0.00 0.00 21 1012.7
20260502221010 21 207 1.6 14.5 0.00 0.00 0.00 21 1012.8
20260502220509 21 153 6.4 32.2 0.00 0.00 0.00 22 1012.8
20260502220008 21 168 16.1 32.2 0.00 0.00 0.00 20 1013.0
20260502215510 21 174 6.4 14.5 0.00 0.00 0.00 21 1013.1
20260502215005 21 258 3.2 14.5 0.00 0.00 0.00 23 1013.2
20260502214504 21 188 8.0 19.3 0.00 0.00 0.00 22 1013.3
20260502214002 21 143 6.4 19.3 0.00 0.00 0.00 21 1013.4
20260502213601 21 260 9.7 17.7 0.00 0.00 0.00 23 1013.5
20260502213059 21 219 9.7 22.5 0.00 0.00 0.00 20 1013.6
20260502212557 22 174 12.9 22.5 0.00 0.00 0.00 19 1013.7
20260502212056 21 128 6.4 17.7 0.00 0.00 0.00 19 1013.6
20260502211555 21 126 9.7 24.1 0.00 0.00 0.00 20 1013.8
20260502211052 22 180 19.3 22.5 0.00 0.00 0.00 22 1013.6